Flag for Romania Weather past 2 weeks in Brăila, Romania

Now
81 °F

Passing clouds.


Feels Like: 80 °F
Forecast: 68 / 97 °F
Wind: 3 mph from Northwest

Location: Galati

Current Time: Aug 5, 2015 at 3:22:09 AM

Latest Report: Aug 5, 2015 at 2:00 AM


Visibility: 13 mi

Pressure: 29.94 "Hg

Humidity: 34%

Dew point: 49 °F

Location of BrăilaLocation

Historic Weather in Brăila — Graph

°F

Brăila temperature yesterday

Maximum temperature yesterday: 93 °F (at 5:00 PM)
Minimum temperature yesterday: 67 °F (at 6:00 AM)
Average temperature yesterday: 80 °F

Past Weeks' High & Low Weather Summary

 TemperatureHumidityPressure
High98 °F (Jul 26, 5:00 PM)92% (Jul 31, 5:00 AM)30.21 "Hg (Jul 31, 5:00 AM)
Low62 °F (Aug 3, 7:00 AM)21% (Jul 26, 6:00 PM)29.65 "Hg (Jul 26, 7:00 PM)
Average80 °F50%29.91 "Hg
* Reported Jul 21 2:00 AM — Aug 5 2:00 AM, Brăila, Weather by CustomWeather, © 2015

Note: Actual official high and low records may vary slightly from our data, if they occured in-between our weather recording intervals... More about our weather records

Advertising

Brăila weather history for previous 24 hours

 ConditionsComfort  
Time TempWeatherWind HumidityBarometerVisibility
2:00 AM
Wed, Aug 5
81 °FPassing clouds.3 mph34%29.94 "Hg12 mi
1:00 AM81 °FPassing clouds.3 mph35%29.94 "Hg12 mi
11:00 PM
Tue, Aug 4
83 °FPassing clouds.3 mph34%29.95 "Hg12 mi
10:00 PM85 °FPassing clouds.3 mph34%29.94 "Hg12 mi
9:00 PM87 °FPassing clouds.3 mph32%29.93 "Hg12 mi
8:00 PM89 °FPassing clouds.2 mph32%29.92 "Hg12 mi
7:00 PM92 °FPassing clouds.3 mph31%29.92 "Hg12 mi
6:00 PM93 °FPassing clouds.3 mph31%29.93 "Hg12 mi
5:00 PM93 °FScattered clouds.3 mph27%29.94 "Hg12 mi
4:00 PM92 °FScattered clouds.5 mph28%29.96 "Hg12 mi
3:00 PM90 °FPartly sunny.3 mph32%29.98 "Hg12 mi
2:00 PM87 °FPartly sunny.3 mph38%30.00 "Hg12 mi
1:00 PM83 °FOvercast.3 mph46%30.01 "Hg12 mi
12:00 PM81 °FOvercast.3 mph46%30.02 "Hg12 mi
11:00 AM76 °FOvercast.2 mph54%30.02 "Hg12 mi
10:00 AM72 °FScattered clouds.3 mph57%30.02 "Hg12 mi
9:00 AM71 °FScattered clouds.3 mph56%30.02 "Hg12 mi
8:00 AM67 °FPassing clouds.3 mph64%30.02 "Hg12 mi
7:00 AM67 °FPassing clouds.3 mph61%30.02 "Hg12 mi
6:00 AM67 °FSunny.3 mph62%30.02 "Hg12 mi
5:00 AM70 °FClear.3 mph53%30.03 "Hg12 mi
4:00 AM72 °FClear.3 mph48%30.03 "Hg12 mi
3:00 AM74 °FClear.3 mph46%30.03 "Hg12 mi
Weather by CustomWeather, © 2015

See weather overviewHow to use our weather pages